FW5801 Weather Reports


Display with metric or nautical units.
time (UTC)temp
F
wind
direction
speed
MPH
gust
MPH
rain 1hr
in
rain 24hr
in
rain mn
in
humidity
%
barometer
mb
20260904234057 79 0 0.0 2.0 0.00 0.00 0.00 75 1014.4
20260904233600 80 0 0.0 3.0 0.00 0.00 0.00 75 1014.4
20260904233100 80 0 0.0 3.0 0.00 0.00 0.00 75 1014.3
20260904232557 80 0 1.0 4.0 0.00 0.00 0.00 75 1014.3
20260904232057 80 0 0.0 4.0 0.00 0.00 0.00 77 1014.2
20260904231608 80 262 1.0 8.0 0.00 0.00 0.00 77 1014.2
20260904231058 80 265 1.0 10.0 0.00 0.00 0.00 77 1014.2
20260904230602 80 281 4.0 10.0 0.00 0.00 0.00 76 1014.3
20260904230108 80 272 3.0 7.0 0.00 0.00 0.00 78 1014.3
20260904225558 81 0 2.0 7.0 0.00 0.00 0.00 78 1014.3
20260904225057 81 244 3.0 7.0 0.00 0.00 0.00 78 1014.4
20260904224611 81 273 2.0 7.0 0.00 0.00 0.00 78 1014.3
20260904224057 81 265 2.0 7.0 0.00 0.00 0.00 79 1014.3
20260904223558 81 229 0.0 5.0 0.00 0.00 0.00 79 1014.5
20260904223104 80 0 1.0 6.0 0.00 0.00 0.00 79 1014.7
20260904222558 80 0 2.0 7.0 0.00 0.00 0.00 80 1014.6
20260904222057 80 253 2.0 7.0 0.00 0.00 0.00 81 1014.7
20260904221607 79 273 2.0 7.0 0.00 0.00 0.00 81 1014.8
20260904221057 79 0 1.0 8.0 0.00 0.00 0.00 81 1014.5
20260904220558 79 0 3.0 8.0 0.00 0.00 0.00 80 1014.2
20260904215557 79 217 4.0 8.0 0.00 0.00 0.00 80 1013.8
20260904215057 79 209 3.0 9.0 0.00 0.00 0.00 80 1013.7
20260904214609 79 217 4.0 14.0 0.00 0.00 0.00 80 1013.6
20260904214057 79 203 5.0 14.0 0.00 0.00 0.00 79 1013.5
20260904213557 79 216 6.0 14.0 0.00 0.00 0.00 79 1012.9
20260904213106 79 184 4.0 11.0 0.00 0.00 0.00 79 1012.7
20260904212558 79 189 5.0 11.0 0.00 0.00 0.00 79 1013.3
20260904212058 79 205 4.0 11.0 0.00 0.00 0.00 79 1013.2
20260904211604 79 195 5.0 11.0 0.00 0.00 0.00 79 1013.6
20260904211057 79 228 2.0 7.0 0.00 0.00 0.00 79 1014.9
20260904210557 79 0 0.0 3.0 0.00 0.00 0.00 79 1014.2
20260904210106 79 0 0.0 3.0 0.00 0.00 0.00 79 1014.4
20260904205558 79 0 0.0 3.0 0.00 0.00 0.00 78 1014.9
20260904205101 79 0 0.0 0.0 0.00 0.00 0.00 78 1015.2
20260904204606 79 0 0.0 4.0 0.00 0.00 0.00 77 1015.6
20260904204058 80 0 0.0 4.0 0.00 0.00 0.00 77 1015.7
20260904203558 80 0 1.0 4.0 0.00 0.00 0.00 77 1014.9
20260904203104 80 0 0.0 2.0 0.00 0.00 0.00 77 1015.5
20260904202558 80 62 0.0 2.0 0.00 0.00 0.00 77 1015.8
20260904202057 80 0 0.0 2.0 0.00 0.00 0.00 77 1015.8
20260904201637 80 0 0.0 3.0 0.00 0.00 0.00 76 1015.8
20260904201100 81 0 0.0 7.0 0.00 0.00 0.00 76 1016.3
20260904200557 81 76 0.0 8.0 0.00 0.00 0.00 76 1016.4
20260904200121 81 61 3.0 9.0 0.00 0.00 0.00 75 1016.5
20260904195600 81 103 3.0 9.0 0.00 0.00 0.00 75 1016.3
20260904195101 82 98 2.0 8.0 0.00 0.00 0.00 74 1016.5
20260904194610 82 0 2.0 8.0 0.00 0.00 0.00 74 1016.7
20260904194058 82 105 3.0 14.0 0.00 0.00 0.00 74 1016.7
20260904193601 82 89 3.0 14.0 0.00 0.00 0.00 73 1016.6
20260904193111 82 94 6.0 14.0 0.00 0.00 0.00 72 1016.5
20260904192557 83 0 5.0 14.0 0.00 0.00 0.00 72 1016.5
20260904192057 83 72 6.0 14.0 0.00 0.00 0.00 71 1016.6
20260904191603 83 47 5.0 12.0 0.00 0.00 0.00 72 1016.6
20260904191059 83 339 6.0 13.0 0.00 0.00 0.00 73 1016.6
20260904190557 83 360 6.0 15.0 0.00 0.00 0.00 73 1016.5
20260904185600 85 82 8.0 19.0 0.00 0.00 0.00 70 1016.8
20260904185101 87 100 7.0 19.0 0.00 0.00 0.00 69 1016.7
20260904184602 88 62 6.0 14.0 0.00 0.00 0.00 69 1016.9
20260904184100 88 333 4.0 9.0 0.00 0.00 0.00 66 1016.8
20260904183601 88 49 2.0 10.0 0.00 0.00 0.00 67 1016.8
20260904183104 88 0 5.0 11.0 0.00 0.00 0.00 63 1016.6
20260904182557 88 45 2.0 15.0 0.00 0.00 0.00 66 1016.6
20260904182057 88 355 6.0 15.0 0.00 0.00 0.00 65 1016.6
20260904181602 89 355 7.0 12.0 0.00 0.00 0.00 63 1016.8
20260904181059 90 46 2.0 10.0 0.00 0.00 0.00 63 1016.7
20260904180557 89 0 1.0 5.0 0.00 0.00 0.00 63 1016.5
20260904175558 88 296 1.0 6.0 0.00 0.00 0.00 66 1016.7
20260904175059 87 0 1.0 4.0 0.00 0.00 0.00 68 1016.8
20260904174601 86 0 0.0 2.0 0.00 0.00 0.00 70 1017.0
20260904174058 85 0 0.0 5.0 0.00 0.00 0.00 73 1016.9
20260904173557 84 0 0.0 5.0 0.00 0.00 0.00 73 1017.0
20260904173130 84 355 1.0 5.0 0.00 0.00 0.00 73 1017.1
20260904172558 83 0 0.0 2.0 0.00 0.00 0.00 77 1017.0
20260904172058 82 0 0.0 4.0 0.00 0.00 0.00 76 1017.1
20260904171610 81 0 0.0 4.0 0.00 0.00 0.00 78 1017.3
20260904171058 80 346 0.0 6.0 0.00 0.00 0.00 78 1017.5
20260904170557 80 346 1.0 6.0 0.00 0.00 0.00 80 1017.6
20260904170100 79 360 3.0 6.0 0.00 0.00 0.00 79 1017.7
20260904165557 79 47 3.0 6.0 0.00 0.00 0.00 79 1017.7
20260904165057 79 0 3.0 6.0 0.00 0.00 0.00 79 1017.5
20260904164602 79 333 3.0 6.0 0.00 0.00 0.00 78 1017.6
20260904164057 79 0 1.0 6.0 0.00 0.00 0.00 79 1017.7
20260904163559 79 0 1.0 8.0 0.00 0.00 0.00 79 1017.6
20260904163105 79 355 3.0 14.0 0.00 0.00 0.00 78 1017.6
20260904162558 79 360 4.0 15.0 0.00 0.00 0.00 76 1017.7
20260904162101 80 323 8.0 15.0 0.00 0.00 0.00 74 1017.8
20260904161605 82 55 8.0 15.0 0.00 0.00 0.00 71 1017.9
20260904161057 83 60 6.0 13.0 0.00 0.00 0.00 70 1017.8
20260904160557 83 341 6.0 13.0 0.00 0.00 0.00 70 1017.8
20260904155600 83 43 3.0 8.0 0.00 0.00 0.00 71 1017.5
20260904155100 83 318 4.0 8.0 0.00 0.00 0.00 71 1017.6
20260904154603 83 348 2.0 4.0 0.00 0.00 0.00 71 1017.5
20260904154100 83 0 1.0 6.0 0.00 0.00 0.00 72 1017.3
20260904153558 83 0 3.0 8.0 0.00 0.00 0.00 73 1017.3
20260904153104 83 41 3.0 8.0 0.00 0.00 0.00 73 1017.5
20260904152557 84 341 4.0 7.0 0.00 0.00 0.00 72 1017.5
20260904152059 84 360 1.0 6.0 0.00 0.00 0.00 72 1017.3
20260904151614 84 345 3.0 6.0 0.00 0.00 0.00 72 1017.3
20260904151058 84 338 2.0 6.0 0.00 0.00 0.00 72 1017.3
20260904150558 84 355 2.0 8.0 0.00 0.00 0.00 72 1017.2
20260904150125 84 283 2.0 9.0 0.00 0.00 0.00 72 1017.1
20260904145558 84 0 2.0 9.0 0.00 0.00 0.00 71 1017.0
20260904145058 84 346 4.0 9.0 0.00 0.00 0.00 71 1017.0
20260904144601 84 334 3.0 9.0 0.00 0.00 0.00 71 1016.9
20260904144057 84 267 5.0 12.0 0.00 0.00 0.00 72 1016.8
20260904143557 84 306 3.0 12.0 0.00 0.00 0.00 72 1016.7
20260904143104 84 248 3.0 12.0 0.00 0.00 0.00 73 1016.9
20260904142558 84 319 3.0 12.0 0.00 0.00 0.00 72 1016.8
20260904142059 85 277 3.0 12.0 0.00 0.00 0.00 72 1017.0
20260904141615 85 287 3.0 11.0 0.00 0.00 0.00 71 1016.8
20260904141059 85 267 5.0 11.0 0.00 0.00 0.00 71 1016.6
20260904140600 85 294 3.0 11.0 0.00 0.00 0.00 71 1016.5
20260904140106 85 53 4.0 11.0 0.00 0.00 0.00 70 1016.5
20260904135558 86 273 4.0 11.0 0.00 0.00 0.00 70 1016.3
20260904135058 85 259 3.0 12.0 0.00 0.00 0.00 72 1016.3
20260904134624 85 277 6.0 12.0 0.00 0.00 0.00 70 1016.5
20260904134057 85 265 3.0 13.0 0.00 0.00 0.00 71 1016.3
20260904133557 85 243 3.0 13.0 0.00 0.00 0.00 71 1016.3
20260904133110 85 290 6.0 13.0 0.00 0.00 0.00 71 1016.3
20260904132558 84 264 5.0 13.0 0.00 0.00 0.00 72 1016.3
20260904132058 84 288 4.0 11.0 0.00 0.00 0.00 73 1016.3
20260904131601 83 268 6.0 11.0 0.00 0.00 0.00 73 1016.5
20260904131101 83 275 3.0 10.0 0.00 0.00 0.00 74 1016.4
20260904130558 83 269 4.0 10.0 0.00 0.00 0.00 75 1016.4
20260904130107 82 287 4.0 9.0 0.00 0.00 0.00 76 1016.5
20260904125601 82 279 3.0 7.0 0.00 0.00 0.00 77 1016.6
20260904125058 81 284 3.0 7.0 0.00 0.00 0.00 78 1016.5
20260904124603 80 277 3.0 6.0 0.00 0.00 0.00 79 1016.6
20260904124057 79 263 2.0 6.0 0.00 0.00 0.00 82 1016.8
20260904123558 78 273 2.0 6.0 0.00 0.00 0.00 84 1016.8
20260904123107 77 286 2.0 6.0 0.00 0.00 0.00 85 1016.9
20260904122601 77 0 0.0 0.0 0.00 0.00 0.00 85 1017.0
20260904122058 76 0 0.0 0.0 0.00 0.00 0.00 87 1017.0
20260904121603 76 0 0.0 0.0 0.00 0.00 0.00 87 1017.0
20260904121057 75 0 0.0 0.0 0.00 0.00 0.00 88 1017.0
20260904120601 75 0 0.0 2.0 0.00 0.00 0.00 87 1017.0
20260904120108 75 0 0.0 4.0 0.00 0.00 0.00 87 1016.8
20260904115557 74 0 1.0 4.0 0.00 0.00 0.00 87 1016.6
20260904115058 74 0 0.0 3.0 0.00 0.00 0.00 87 1016.6
20260904114605 74 253 0.0 3.0 0.00 0.00 0.00 87 1016.4
20260904114058 74 251 0.0 3.0 0.00 0.00 0.00 87 1016.3
20260904113559 74 0 0.0 3.0 0.00 0.00 0.00 87 1016.3
20260904113110 74 249 0.0 2.0 0.00 0.00 0.00 87 1016.4
20260904112559 74 0 0.0 4.0 0.00 0.00 0.00 87 1016.2
20260904112059 74 250 1.0 4.0 0.00 0.00 0.00 87 1016.0
20260904111616 74 232 0.0 3.0 0.00 0.00 0.00 87 1016.1
20260904111058 74 0 0.0 2.0 0.00 0.00 0.00 87 1016.1
20260904110558 74 0 0.0 0.0 0.00 0.00 0.00 87 1016.1
20260904110123 74 0 0.0 0.0 0.00 0.00 0.00 87 1016.0
20260904105601 74 0 0.0 2.0 0.00 0.00 0.00 87 1015.9
20260904105057 74 0 0.0 2.0 0.00 0.00 0.00 87 1015.9
20260904104600 74 0 0.0 2.0 0.00 0.00 0.00 87 1015.8
20260904104100 74 0 0.0 3.0 0.00 0.00 0.00 87 1015.9
20260904103558 74 0 0.0 3.0 0.00 0.00 0.00 87 1015.6
20260904103108 74 0 0.0 3.0 0.00 0.00 0.00 88 1015.6
20260904102558 73 0 0.0 2.0 0.00 0.00 0.00 87 1015.4
20260904102058 73 0 0.0 0.0 0.00 0.00 0.00 87 1015.4
20260904101605 73 0 0.0 2.0 0.00 0.00 0.00 87 1015.3
20260904101057 73 0 0.0 2.0 0.00 0.00 0.00 87 1015.3
20260904100557 73 270 0.0 1.0 0.00 0.00 0.00 87 1015.3
20260904100105 73 0 0.0 1.0 0.00 0.00 0.00 87 1015.3
20260904095600 73 0 0.0 1.0 0.00 0.00 0.00 87 1015.5
20260904095059 73 0 0.0 1.0 0.00 0.00 0.00 87 1015.5
20260904094605 74 0 0.0 2.0 0.00 0.00 0.00 87 1015.5
20260904094058 74 0 0.0 3.0 0.00 0.00 0.00 87 1015.5
20260904093559 74 0 0.0 3.0 0.00 0.00 0.00 87 1015.5
20260904093112 74 0 0.0 0.0 0.00 0.00 0.00 86 1015.4
20260904092558 74 0 0.0 0.0 0.00 0.00 0.00 86 1015.4
20260904092058 74 0 0.0 0.0 0.00 0.00 0.00 86 1015.3
20260904091605 74 0 0.0 0.0 0.00 0.00 0.00 86 1015.3
20260904091058 74 0 0.0 0.0 0.00 0.00 0.00 86 1015.3
20260904090557 74 0 0.0 0.0 0.00 0.00 0.00 86 1015.3
20260904090105 74 0 0.0 0.0 0.00 0.00 0.00 86 1015.5
20260904085558 74 0 0.0 3.0 0.00 0.00 0.00 87 1015.4
20260904085058 74 0 0.0 3.0 0.00 0.00 0.00 87 1015.5
20260904084602 74 242 0.0 3.0 0.00 0.00 0.00 87 1015.5
20260904084058 73 0 0.0 3.0 0.00 0.00 0.00 87 1015.3
20260904083558 73 0 0.0 3.0 0.00 0.00 0.00 87 1015.4
20260904083106 73 0 0.0 0.0 0.00 0.00 0.00 87 1015.5
20260904082558 73 0 0.0 0.0 0.00 0.00 0.00 87 1015.5
20260904082103 73 0 0.0 0.0 0.00 0.00 0.00 87 1015.6
20260904081604 73 0 0.0 0.0 0.00 0.00 0.00 87 1015.6
20260904081058 73 0 0.0 0.0 0.00 0.00 0.00 87 1015.7
20260904080558 73 0 0.0 0.0 0.00 0.00 0.00 87 1015.7
20260904080100 73 0 0.0 0.0 0.00 0.00 0.00 87 1015.8
20260904075558 73 0 0.0 0.0 0.00 0.00 0.00 87 1015.8
20260904075058 73 0 0.0 0.0 0.00 0.00 0.00 87 1015.8
20260904074603 73 0 0.0 0.0 0.00 0.00 0.00 87 1015.8
20260904074058 73 0 0.0 0.0 0.00 0.00 0.00 87 1015.8
20260904073558 73 0 0.0 0.0 0.00 0.00 0.00 87 1015.9
20260904073106 73 0 0.0 0.0 0.00 0.00 0.00 86 1016.0
20260904072557 73 0 0.0 0.0 0.00 0.00 0.00 86 1016.0
20260904072058 73 0 0.0 0.0 0.00 0.00 0.00 86 1015.9
20260904071600 73 0 0.0 0.0 0.00 0.00 0.00 86 1016.0
20260904071058 74 0 0.0 0.0 0.00 0.00 0.00 86 1016.0
20260904070559 74 0 0.0 1.0 0.00 0.00 0.00 86 1016.1
20260904070106 74 0 0.0 1.0 0.00 0.00 0.00 86 1016.0
20260904065558 74 0 0.0 0.0 0.00 0.00 0.00 86 1016.0
20260904065058 74 0 0.0 0.0 0.00 0.00 0.00 85 1016.1
20260904064605 74 0 0.0 0.0 0.00 0.00 0.00 85 1016.3
20260904064058 74 0 0.0 0.0 0.00 0.00 0.00 85 1016.3
20260904063558 74 0 0.0 0.0 0.00 0.00 0.00 85 1016.4
20260904063123 74 0 0.0 0.0 0.00 0.00 0.00 85 1016.3
20260904062600 74 0 0.0 0.0 0.00 0.00 0.00 85 1016.3
20260904062058 74 0 0.0 0.0 0.00 0.00 0.00 85 1016.4
20260904061600 74 0 0.0 0.0 0.00 0.00 0.00 85 1016.3
20260904061101 74 0 0.0 0.0 0.00 0.00 0.00 85 1016.4
20260904060558 74 0 0.0 0.0 0.00 0.00 0.00 85 1016.3
20260904060104 74 0 0.0 0.0 0.00 0.00 0.00 85 1016.5
20260904055558 74 0 0.0 0.0 0.00 0.00 0.00 85 1016.6
20260904055058 74 0 0.0 0.0 0.00 0.00 0.00 84 1016.7
20260904054610 74 0 0.0 0.0 0.00 0.00 0.00 84 1016.6
20260904054057 75 0 0.0 0.0 0.00 0.00 0.00 84 1016.6
20260904053559 75 0 0.0 0.0 0.00 0.00 0.00 84 1016.6
20260904053101 75 0 0.0 0.0 0.00 0.00 0.00 84 1016.6
20260904052558 75 0 0.0 0.0 0.00 0.00 0.00 84 1016.6
20260904052059 75 0 0.0 0.0 0.00 0.00 0.00 84 1016.6
20260904051610 75 0 0.0 0.0 0.00 0.00 0.00 84 1016.6
20260904051058 75 0 0.0 0.0 0.00 0.00 0.00 84 1016.7
20260904050558 75 0 0.0 0.0 0.00 0.00 0.00 84 1016.7
20260904050106 75 0 0.0 3.0 0.00 0.00 0.00 84 1016.7
20260904045558 75 0 0.0 3.0 0.00 0.00 0.00 84 1016.7
20260904045058 75 0 0.0 2.0 0.00 0.00 0.00 84 1016.7
20260904044606 74 0 0.0 0.0 0.00 0.00 0.00 84 1016.6
20260904044101 74 0 0.0 0.0 0.00 0.00 0.00 84 1016.6
20260904043600 75 0 0.0 0.0 0.00 0.00 0.00 84 1016.6
20260904043109 75 0 0.0 0.0 0.00 0.00 0.00 83 1016.6
20260904042558 75 0 0.0 0.0 0.00 0.00 0.00 84 1016.5
20260904042059 75 0 0.0 0.0 0.00 0.00 0.00 84 1016.6
20260904041603 75 0 0.0 0.0 0.00 0.00 0.00 83 1016.5
20260904041058 75 0 0.0 0.0 0.00 0.00 0.00 83 1016.6
20260904040602 75 0 0.0 0.0 0.00 0.00 0.00 83 1016.4
20260904040107 75 0 0.0 0.0 0.00 0.00 0.00 83 1016.5
20260904035559 75 0 0.0 0.0 0.00 0.00 0.00 83 1016.4
20260904035100 75 0 0.0 0.0 0.00 0.00 0.00 83 1016.2
20260904034603 75 0 0.0 0.0 0.00 0.00 0.00 83 1016.2
20260904034058 75 0 0.0 0.0 0.00 0.00 0.00 83 1016.1
20260904033558 75 0 0.0 0.0 0.00 0.00 0.00 83 1016.2
20260904033105 75 0 0.0 0.0 0.00 0.00 0.00 83 1016.3
20260904032557 75 0 0.0 0.0 0.00 0.00 0.00 83 1016.3
20260904032057 75 0 0.0 0.0 0.00 0.00 0.00 83 1016.6
20260904031608 75 0 0.0 0.0 0.00 0.00 0.00 83 1016.7
20260904031058 75 0 0.0 0.0 0.00 0.00 0.00 83 1016.5
20260904030558 75 0 0.0 0.0 0.00 0.00 0.00 83 1016.6
20260904030107 75 0 0.0 0.0 0.00 0.00 0.00 83 1016.6
20260904025603 75 0 0.0 0.0 0.00 0.00 0.00 83 1016.5
20260904025058 75 0 0.0 0.0 0.00 0.00 0.00 83 1016.6
20260904024606 76 0 0.0 0.0 0.00 0.00 0.00 82 1016.6
20260904024100 76 0 0.0 0.0 0.00 0.00 0.00 82 1016.6
20260904023558 76 0 0.0 0.0 0.00 0.00 0.00 82 1016.7
20260904023105 76 0 0.0 3.0 0.00 0.00 0.00 82 1016.7
20260904022558 76 0 0.0 4.0 0.00 0.00 0.00 81 1016.8
20260904022101 77 351 1.0 5.0 0.00 0.00 0.00 80 1016.8
20260904021609 77 0 2.0 5.0 0.00 0.00 0.00 80 1016.8
20260904021100 77 0 1.0 9.0 0.00 0.00 0.00 79 1016.6
20260904020559 78 0 1.0 11.0 0.00 0.00 0.00 78 1016.6
20260904020118 79 53 3.0 11.0 0.00 0.00 0.00 76 1016.5
20260904015600 80 42 5.0 14.0 0.00 0.00 0.00 75 1016.4
20260904015058 81 51 6.0 14.0 0.00 0.00 0.00 74 1016.5
20260904014627 82 44 5.0 11.0 0.00 0.00 0.00 72 1016.4
20260904014058 83 275 1.0 7.0 0.00 0.00 0.00 71 1016.0
20260904013558 83 252 2.0 7.0 0.00 0.00 0.00 71 1015.9
20260904013104 83 262 2.0 8.0 0.00 0.00 0.00 70 1015.8
20260904012600 83 244 3.0 8.0 0.00 0.00 0.00 70 1015.9
20260904012101 83 273 2.0 8.0 0.00 0.00 0.00 70 1016.0
20260904011603 83 276 2.0 8.0 0.00 0.00 0.00 70 1016.0
20260904011102 83 261 3.0 8.0 0.00 0.00 0.00 71 1015.9
20260904010600 83 236 3.0 6.0 0.00 0.00 0.00 71 1015.9
20260904010104 83 242 1.0 5.0 0.00 0.00 0.00 71 1015.9
20260904005558 83 0 1.0 7.0 0.00 0.00 0.00 71 1016.1
20260904005058 83 229 3.0 7.0 0.00 0.00 0.00 71 1016.0
20260904004608 84 246 1.0 5.0 0.00 0.00 0.00 71 1016.2
20260904004058 84 0 0.0 4.0 0.00 0.00 0.00 70 1016.1
20260904003601 84 0 1.0 4.0 0.00 0.00 0.00 69 1016.1
20260904003104 84 0 0.0 5.0 0.00 0.00 0.00 69 1016.0
20260904002558 85 0 1.0 5.0 0.00 0.00 0.00 68 1015.8
20260904002059 85 246 1.0 6.0 0.00 0.00 0.00 68 1015.7
20260904001600 85 0 1.0 6.0 0.00 0.00 0.00 67 1015.8
20260904001102 86 0 1.0 5.0 0.00 0.00 0.00 67 1015.8
20260904000558 86 268 1.0 4.0 0.00 0.00 0.00 66 1015.9
20260904000123 86 268 2.0 6.0 0.00 0.00 0.00 65 1016.0
20260903235601 87 0 2.0 6.0 0.00 0.00 0.00 64 1016.0
20260903235057 87 273 2.0 4.0 0.00 0.00 0.00 64 1015.9
20260903234603 87 278 1.0 8.0 0.00 0.00 0.00 64 1016.0